Bedford, MA

9:26 PM EDT on July 22, 2017 (GMT -0400)
Hanscom

Weather History for KBED - June, 2013

Change the Weather History Date:

Tuesday, June 25, 2013

  Actual Average Record
Temperature  
Mean Temperature 78 °F -  
Max Temperature 90 °F 77 °F 93 °F (1963)
Min Temperature 68 °F 56 °F 45 °F (1986)
Cooling Degree Days 14    
Growing Degree Days 28 (Base 50)    
Moisture  
Dew Point 67 °F    
Average Humidity 70    
Maximum Humidity 96    
Minimum Humidity 48    
Precipitation  
Precipitation 0.00 in - - ()
Sea Level Pressure  
Sea Level Pressure 29.86 in    
Wind  
Wind Speed 8 mph (WSW)    
Max Wind Speed 15 mph    
Max Gust Speed 22 mph    
Visibility 10 miles    
Events      
Averages and records for this station are not official NWS values.
T = Trace of Precipitation, MM = Missing Value Source: NWS Daily Summary

Daily Weather History Graph

Daily Weather History Graph

Search for Another Location

Airport or City:

Trip Planner

Search our weather history database for the weather conditions in past years. The results will help you decide how hot, cold, wet, or windy it might be!

Date:

Astronomy

Jun. 25, 2013 Rise Set
Actual Time 5:09 AM EDT 8:26 PM EDT
Civil Twilight 4:34 AM EDT 9:01 PM EDT
Nautical Twilight 3:49 AM EDT 9:46 PM EDT
Astronomical Twilight 2:54 AM EDT 10:41 PM EDT
Moon 10:05 PM EDT (6/25) 7:48 AM EDT (6/25)
Length of Visible Light 16h 26m
Length of Day
15h 17m
Waning Gibbous, 93% of the Moon is Illuminated
Jun 25
Waning Gibbous
Jun 30
Last Quarter
Jul 8
New
Jul 15
First Quarter
Jul 22
Full

Hourly Weather History & Observations

Time (EDT) Temp. Heat Index Dew Point Humidity Pressure Visibility Wind Dir Wind Speed Gust Speed Precip Events Conditions
12:56 AM 69.1 °F - 68.0 °F 96% 29.94 in 10.0 mi WSW 8.1 mph - N/A   Clear
1:56 AM 69.1 °F - 66.9 °F 93% 29.94 in 10.0 mi WSW 6.9 mph - N/A   Clear
2:56 AM 68.0 °F - 66.0 °F 93% 29.93 in 10.0 mi WSW 8.1 mph - N/A   Clear
3:56 AM 68.0 °F - 66.0 °F 93% 29.91 in 10.0 mi SW 6.9 mph - N/A   Scattered Clouds
4:56 AM 68.0 °F - 64.9 °F 90% 29.93 in 10.0 mi SW 5.8 mph - N/A   Clear
5:56 AM 69.1 °F - 64.0 °F 84% 29.93 in 10.0 mi WSW 4.6 mph - N/A   Clear
6:56 AM 71.1 °F - 64.9 °F 81% 29.92 in 10.0 mi WSW 6.9 mph - N/A   Clear
7:56 AM 75.0 °F - 64.9 °F 71% 29.92 in 10.0 mi WSW 9.2 mph - N/A   Clear
8:56 AM 78.1 °F - 66.0 °F 66% 29.91 in 10.0 mi West 9.2 mph - N/A   Clear
9:56 AM 82.0 °F 84.5 °F 66.9 °F 60% 29.89 in 10.0 mi WSW 9.2 mph - N/A   Clear
10:56 AM 84.0 °F 87.0 °F 68.0 °F 58% 29.91 in 10.0 mi WSW 9.2 mph - N/A   Clear
11:56 AM 86.0 °F 90.1 °F 69.1 °F 57% 29.90 in 10.0 mi WSW 10.4 mph - N/A   Clear
12:56 PM 88.0 °F 92.9 °F 70.0 °F 55% 29.88 in 10.0 mi WSW 8.1 mph 16.1 mph N/A   Clear
1:56 PM 89.1 °F 93.7 °F 69.1 °F 52% 29.85 in 10.0 mi West 10.4 mph - N/A   Partly Cloudy
2:56 PM 89.1 °F 92.1 °F 66.9 °F 48% 29.83 in 10.0 mi WSW 15.0 mph 19.6 mph N/A   Clear
3:56 PM 89.1 °F 92.1 °F 66.9 °F 48% 29.80 in 10.0 mi SW 9.2 mph - N/A   Clear
4:56 PM 87.1 °F 90.6 °F 68.0 °F 53% 29.78 in 10.0 mi SW 11.5 mph - N/A   Partly Cloudy
5:56 PM 86.0 °F 89.4 °F 68.0 °F 55% 29.77 in 10.0 mi SSW 8.1 mph - N/A   Clear
6:56 PM 82.9 °F 86.5 °F 69.1 °F 63% 29.76 in 10.0 mi SSW 8.1 mph - N/A   Clear
7:56 PM 82.9 °F 86.5 °F 69.1 °F 63% 29.75 in 10.0 mi SSW 11.5 mph 19.6 mph N/A   Clear
8:56 PM 80.1 °F 82.1 °F 66.0 °F 62% 29.76 in 10.0 mi SW 11.5 mph 21.9 mph N/A   Partly Cloudy
9:56 PM 77.0 °F - 68.0 °F 74% 29.78 in 10.0 mi NW 8.1 mph - N/A   Scattered Clouds
10:56 PM 73.9 °F - 69.1 °F 85% 29.78 in 10.0 mi WNW 4.6 mph - N/A   Partly Cloudy
11:56 PM 72.0 °F - 68.0 °F 87% 29.78 in 10.0 mi SW 4.6 mph - N/A   Clear